Weather in Amarah

Iraq     31°50′26″N   47°08′29″E
temp.,
°C
wind,
m/s
gust,
m/s
humid.,
%
clouds,
%
prec.,
mm/h
press.,
hPa
HPBL,
m
10 may, mon
mon1000:00+31wnw44140 0.0 100523
03:00+29wnw44160 0.0 100537
06:00+29nw34190 0.0 100657
09:00+36nnw33120 0.0 1007613
12:00+40nw4490 0.0 10063244
15:00+42nw4680 0.0 10044511
18:00+40wnw5780 0.0 1003198
21:00+36wnw33110 0.0 100414
11 may, tue
tue1100:00+33w22130 0.0 100311
03:00+31wnw331451 0.0 100412
06:00+31sw11175 0.0 100511
09:00+39ssw4494 0.0 1006692
12:00+42ssw56793 0.0 10053541
15:00+43ssw877100 0.0 10035048
18:00+40ssw698100 0.0 1002332
21:00+35n58125 0.0 1004108
12 may, wed
wed1200:00+34nne3314100 0.0 100418
03:00+31nnw331673 0.0 100413
06:00+32nnw221671 0.0 100511
09:00+38se111134 0.1 1006552
12:00+41wnw24998 0.2 10053842
15:00+43nw46884 0.2 10035127
18:00+39nw6910100 0.0 1002498
21:00+36nnw341299 0.0 100343
13 may, thu
thu1300:00+33nnw33140 0.0 100317
03:00+31n22170 0.0 100311
06:00+32ne34189 0.0 100438
09:00+38n22120 0.0 1005687
12:00+42wnw4680 0.0 10044387
15:00+43nw7770 0.0 10024773
18:00+41nw71080 0.0 1001430
21:00+36nnw613100 0.0 1002209
14 may, fri
fri1400:00+34nw51080 0.0 1002139
03:00+31nnw57100 0.0 100269
06:00+32nw33130 0.0 100328
09:00+38wnw35100 0.0 1004727
12:00+42nw7770 0.0 10024002
15:00+43wnw8850 0.0 10004709
18:00+41wnw101370 0.0 999691
21:00+37wnw81471 0.0 1001301